FENGYUN 1C DEB, 37925

Orbit data source: Space-Track

FENGYUN 1C DEB, 37925 is space debris in SSO originally from a launch on Mon, 10 May 1999 UTC launched from the Taiyaun Space Center, China (TSC). Fengyun 1C debris stems from the Chinese weather satellite Fengyun-1C, which was intentionally destroyed by a Chinese anti-satellite missile in 2007. This event dramatically increased the amount of space debris, with thousands of trackable fragments posing hazards to satellites and human spaceflight. The Fengyun 1C debris cloud has become a focal point in discussions about space sustainability and the need for international regulations to prevent the creation of new debris.

Loading next visibility...
Identifier
37925, 1999-025EPA
Orbit
SSO
Country
Flag of CNCN / PRC
Related business
Manufacturer
Unknown
Mission
Spacecraft
Bus & Motor
Unknown
Mass
Unknown
Launch date (UTC)
1999-05-10 (27 years ago)
Launch vehicle
Unknown
Launch site
Taiyaun Space Center, China (TSC)
Object type
Payload
Rocket body
Debris
Shape & HBR
Unknown shape, 0.1 m
Radar Cross Section
Small (<0.1 m²)

Expand to show TLE details & history
Last TLE update: 1 day ago

TLE from 1 day ago
0 FENGYUN 1C DEB
1 37925U 99025EPA 26163.97806522  .00010839  00000-0  12594-2 0  9992
2 37925  99.0704  62.6139 0052505 126.4390 234.1678 14.84570969683838
Epoch: 2026-06-12T23:28Z
TLE epoch observation values (Epoch: 2026-06-12T23:28:24.835Z)
Latitude
0.00003°
Longitude
169.21066°
Altitude
639.549 km
Speed
7.527 km/s
True Right ascension
04h 10m 27s
True Declination
0° 00' 00"
Sunlit
Object was in daylight at epoch
Visualization orbit readout
Latitude
Unknown
Longitude
Unknown
Altitude
Unknown
Speed
Unknown
Apparent Right ascension
Unknown
Apparent Declination
Unknown
Sunlit
N/A
Visualization observer readout
Local Sidereal Time
15:41:44
Azimuth
Unknown
Elevation
Unknown
Doppler factor
Unknown
Orbital elements
Apogee altitude
648.726 km
Perigee altitude
575.322 km
Semi-major axis
6,990.161 km
Eccentricity
0.00525
Inclination
99.0704°
RAAN
62.6139°
Arg. of periapsis
126.439°
True anomaly
233.68188°
Mean anomaly
234.1678°
Eccentric anomaly
233.92465°
Mean motion
3.71375 °/min
Orbital period
96.94 mins
BSTAR
0.0012594
Loading maneuver chart data...
Computing Atmospheric mass density...

Documentation

Showing up to 5 results
|